This is the latest recevied weather packets stored in our database for station/object WB0OCV. If no packets are shown the sender has not sent any weather packets the latest 10 day(s).
| Time | Temp. | Humidity | Pressure | Rain* | Wind** | Luminosity | Snow |
|---|---|---|---|---|---|---|---|
| 1778174119 | 16.11° C | 77% | 1009.1 hPa | 0 mm | - | 903 W/m² | - |
| 1778173817 | 16.11° C | 76% | 1009.1 hPa | 0 mm | - | 617 W/m² | - |
| 1778173513 | 15.56° C | 73% | 1009.2 hPa | 0 mm | - | 629 W/m² | - |
| 1778173210 | 15.56° C | 75% | 1009.3 hPa | 0 mm | - | 266 W/m² | - |
| 1778172906 | 16.67° C | 74% | 1009.4 hPa | 0 mm | - | 248 W/m² | - |
| 1778172603 | 16.11° C | 67% | 1009.4 hPa | 0 mm | - | 380 W/m² | - |
| 1778172299 | 16.11° C | 63% | 1009.3 hPa | 0 mm | - | 386 W/m² | - |
| 1778171995 | 15.56° C | 69% | 1009.5 hPa | 0 mm | - | 741 W/m² | - |
| 1778171693 | 15.56° C | 71% | 1009.6 hPa | 0 mm | - | 394 W/m² | - |
| 1778171390 | 16.11° C | 68% | 1009.4 hPa | 0 mm | - | 959 W/m² | - |
| 1778171086 | 16.11° C | 64% | 1009.7 hPa | 0 mm | - | 202 W/m² | - |
| 1778170783 | 15.56° C | 67% | 1009.7 hPa | 0 mm | - | 1096 W/m² | - |
| 1778170479 | 16.11° C | 68% | 1009.5 hPa | 0 mm | - | 744 W/m² | - |
| 1778170176 | 16.11° C | 69% | 1009.6 hPa | 0 mm | - | 896 W/m² | - |
| 1778169872 | 14.44° C | 75% | 1009.8 hPa | 0 mm | - | 600 W/m² | - |
| 1778169567 | 15° C | 72% | 1010.1 hPa | 0 mm | - | 220 W/m² | - |
| 1778169264 | 15° C | 72% | 1010 hPa | 0 mm | - | 886 W/m² | - |
| 1778168961 | 15° C | 77% | 1010 hPa | 0 mm | - | 859 W/m² | - |
| 1778168658 | 13.89° C | 79% | 1010.1 hPa | 0 mm | - | 284 W/m² | - |
| 1778168355 | 14.44° C | 73% | 1010 hPa | 0 mm | - | 274 W/m² | - |
| 1778168052 | 15° C | 74% | 1010.1 hPa | 0 mm | - | 909 W/m² | - |
| 1778167748 | 15° C | 74% | 1010.1 hPa | 0 mm | - | 970 W/m² | - |
| 1778167444 | 15° C | 74% | 1010.2 hPa | 0 mm | - | 916 W/m² | - |
| 1778167140 | 13.33° C | 77% | 1010.2 hPa | 0 mm | - | 618 W/m² | - |
| 1778166836 | 13.89° C | 77% | 1010.3 hPa | 0 mm | - | 876 W/m² | - |
* Rain latest hour (hover to see other rain measurements)
** Current wind speed in m/s (hover to see current wind gust speed)